Data supplied by UK-AIR on 9/6/2008
All Data GMT hour ending 
Status: R =Ratified P=Provisional,P*=As supplied
,,Scunthorpe Town,,,,,,,,,,,,,,,,,,,,,,,
Date,time,"PM10 particulate matter (Hourly measured)",status,unit,"Sulphur dioxide",status,unit
 
01-01-2007,01:00,26,R,ugm-3 (GRAV EQ),,,
01-01-2007,02:00,26,R,ugm-3 (GRAV EQ),5,R,ugm-3
01-01-2007,03:00,20,R,ugm-3 (GRAV EQ),5,R,ugm-3
01-01-2007,04:00,16,R,ugm-3 (GRAV EQ),5,R,ugm-3
01-01-2007,05:00,12,R,ugm-3 (GRAV EQ),5,R,ugm-3
01-01-2007,06:00,9,R,ugm-3 (GRAV EQ),5,R,ugm-3
01-01-2007,07:00,9,R,ugm-3 (GRAV EQ),3,R,ugm-3
01-01-2007,08:00,9,R,ugm-3 (GRAV EQ),3,R,ugm-3
01-01-2007,09:00,10,R,ugm-3 (GRAV EQ),3,R,ugm-3
01-01-2007,10:00,18,R,ugm-3 (GRAV EQ),3,R,ugm-3
01-01-2007,11:00,23,R,ugm-3 (GRAV EQ),5,R,ugm-3
01-01-2007,12:00,21,R,ugm-3 (GRAV EQ),5,R,ugm-3
01-01-2007,13:00,21,R,ugm-3 (GRAV EQ),5,R,ugm-3
01-01-2007,14:00,18,R,ugm-3 (GRAV EQ),5,R,ugm-3
01-01-2007,15:00,29,R,ugm-3 (GRAV EQ),3,R,ugm-3
01-01-2007,16:00,20,R,ugm-3 (GRAV EQ),3,R,ugm-3
01-01-2007,17:00,7,R,ugm-3 (GRAV EQ),3,R,ugm-3
01-01-2007,18:00,7,R,ugm-3 (GRAV EQ),3,R,ugm-3
01-01-2007,19:00,8,R,ugm-3 (GRAV EQ),5,R,ugm-3
01-01-2007,20:00,8,R,ugm-3 (GRAV EQ),5,R,ugm-3
01-01-2007,21:00,8,R,ugm-3 (GRAV EQ),5,R,ugm-3
01-01-2007,22:00,14,R,ugm-3 (GRAV EQ),5,R,ugm-3
01-01-2007,23:00,16,R,ugm-3 (GRAV EQ),5,R,ugm-3
01-01-2007,24:00,17,R,ugm-3 (GRAV EQ),5,R,ugm-3
02-01-2007,01:00,14,R,ugm-3 (GRAV EQ),5,R,ugm-3
02-01-2007,02:00,18,R,ugm-3 (GRAV EQ),5,R,ugm-3
02-01-2007,03:00,16,R,ugm-3 (GRAV EQ),3,R,ugm-3
02-01-2007,04:00,13,R,ugm-3 (GRAV EQ),3,R,ugm-3
02-01-2007,05:00,16,R,ugm-3 (GRAV EQ),3,R,ugm-3
02-01-2007,06:00,18,R,ugm-3 (GRAV EQ),3,R,ugm-3
02-01-2007,07:00,12,R,ugm-3 (GRAV EQ),3,R,ugm-3
02-01-2007,08:00,17,R,ugm-3 (GRAV EQ),3,R,ugm-3
02-01-2007,09:00,20,R,ugm-3 (GRAV EQ),3,R,ugm-3
02-01-2007,10:00,22,R,ugm-3 (GRAV EQ),3,R,ugm-3
02-01-2007,11:00,21,R,ugm-3 (GRAV EQ),5,R,ugm-3
02-01-2007,12:00,20,R,ugm-3 (GRAV EQ),5,R,ugm-3
02-01-2007,13:00,23,R,ugm-3 (GRAV EQ),5,R,ugm-3
02-01-2007,14:00,13,R,ugm-3 (GRAV EQ),3,R,ugm-3
02-01-2007,15:00,16,R,ugm-3 (GRAV EQ),3,R,ugm-3
02-01-2007,16:00,14,R,ugm-3 (GRAV EQ),3,R,ugm-3
02-01-2007,17:00,20,R,ugm-3 (GRAV EQ),5,R,ugm-3
02-01-2007,18:00,20,R,ugm-3 (GRAV EQ),5,R,ugm-3
02-01-2007,19:00,20,R,ugm-3 (GRAV EQ),5,R,ugm-3
02-01-2007,20:00,25,R,ugm-3 (GRAV EQ),11,R,ugm-3
02-01-2007,21:00,29,R,ugm-3 (GRAV EQ),13,R,ugm-3
02-01-2007,22:00,33,R,ugm-3 (GRAV EQ),13,R,ugm-3
02-01-2007,23:00,27,R,ugm-3 (GRAV EQ),11,R,ugm-3
02-01-2007,24:00,29,R,ugm-3 (GRAV EQ),13,R,ugm-3
03-01-2007,01:00,23,R,ugm-3 (GRAV EQ),5,R,ugm-3
03-01-2007,02:00,27,R,ugm-3 (GRAV EQ),5,R,ugm-3
03-01-2007,03:00,27,R,ugm-3 (GRAV EQ),5,R,ugm-3
03-01-2007,04:00,25,R,ugm-3 (GRAV EQ),3,R,ugm-3
03-01-2007,05:00,18,R,ugm-3 (GRAV EQ),3,R,ugm-3
03-01-2007,06:00,20,R,ugm-3 (GRAV EQ),5,R,ugm-3
03-01-2007,07:00,22,R,ugm-3 (GRAV EQ),11,R,ugm-3
03-01-2007,08:00,27,R,ugm-3 (GRAV EQ),11,R,ugm-3
03-01-2007,09:00,23,R,ugm-3 (GRAV EQ),8,R,ugm-3
03-01-2007,10:00,13,R,ugm-3 (GRAV EQ),5,R,ugm-3
03-01-2007,11:00,9,R,ugm-3 (GRAV EQ),5,R,ugm-3
03-01-2007,12:00,5,R,ugm-3 (GRAV EQ),5,R,ugm-3
03-01-2007,13:00,7,R,ugm-3 (GRAV EQ),5,R,ugm-3
03-01-2007,14:00,9,R,ugm-3 (GRAV EQ),5,R,ugm-3
03-01-2007,15:00,14,R,ugm-3 (GRAV EQ),5,R,ugm-3
03-01-2007,16:00,12,R,ugm-3 (GRAV EQ),5,R,ugm-3
03-01-2007,17:00,9,R,ugm-3 (GRAV EQ),5,R,ugm-3
03-01-2007,18:00,9,R,ugm-3 (GRAV EQ),5,R,ugm-3
03-01-2007,19:00,12,R,ugm-3 (GRAV EQ),5,R,ugm-3
03-01-2007,20:00,10,R,ugm-3 (GRAV EQ),3,R,ugm-3
03-01-2007,21:00,4,R,ugm-3 (GRAV EQ),5,R,ugm-3
03-01-2007,22:00,7,R,ugm-3 (GRAV EQ),5,R,ugm-3
03-01-2007,23:00,10,R,ugm-3 (GRAV EQ),5,R,ugm-3
03-01-2007,24:00,10,R,ugm-3 (GRAV EQ),5,R,ugm-3
04-01-2007,01:00,10,R,ugm-3 (GRAV EQ),3,R,ugm-3
04-01-2007,02:00,5,R,ugm-3 (GRAV EQ),3,R,ugm-3
04-01-2007,03:00,9,R,ugm-3 (GRAV EQ),3,R,ugm-3
04-01-2007,04:00,14,R,ugm-3 (GRAV EQ),3,R,ugm-3
04-01-2007,05:00,13,R,ugm-3 (GRAV EQ),3,R,ugm-3
04-01-2007,06:00,14,R,ugm-3 (GRAV EQ),3,R,ugm-3
04-01-2007,07:00,16,R,ugm-3 (GRAV EQ),3,R,ugm-3
04-01-2007,08:00,14,R,ugm-3 (GRAV EQ),3,R,ugm-3
04-01-2007,09:00,13,R,ugm-3 (GRAV EQ),3,R,ugm-3
04-01-2007,10:00,17,R,ugm-3 (GRAV EQ),3,R,ugm-3
04-01-2007,11:00,,,,,,
04-01-2007,12:00,21,R,ugm-3 (GRAV EQ),3,R,ugm-3
04-01-2007,13:00,25,R,ugm-3 (GRAV EQ),3,R,ugm-3
04-01-2007,14:00,31,R,ugm-3 (GRAV EQ),16,R,ugm-3
04-01-2007,15:00,33,R,ugm-3 (GRAV EQ),21,R,ugm-3
04-01-2007,16:00,27,R,ugm-3 (GRAV EQ),11,R,ugm-3
04-01-2007,17:00,29,R,ugm-3 (GRAV EQ),13,R,ugm-3
04-01-2007,18:00,33,R,ugm-3 (GRAV EQ),8,R,ugm-3
04-01-2007,19:00,31,R,ugm-3 (GRAV EQ),13,R,ugm-3
04-01-2007,20:00,34,R,ugm-3 (GRAV EQ),21,R,ugm-3
04-01-2007,21:00,33,R,ugm-3 (GRAV EQ),11,R,ugm-3
04-01-2007,22:00,29,R,ugm-3 (GRAV EQ),8,R,ugm-3
04-01-2007,23:00,30,R,ugm-3 (GRAV EQ),5,R,ugm-3
04-01-2007,24:00,21,R,ugm-3 (GRAV EQ),5,R,ugm-3
05-01-2007,01:00,20,R,ugm-3 (GRAV EQ),3,R,ugm-3
05-01-2007,02:00,20,R,ugm-3 (GRAV EQ),3,R,ugm-3
05-01-2007,03:00,21,R,ugm-3 (GRAV EQ),5,R,ugm-3
05-01-2007,04:00,17,R,ugm-3 (GRAV EQ),5,R,ugm-3
05-01-2007,05:00,8,R,ugm-3 (GRAV EQ),3,R,ugm-3
05-01-2007,06:00,12,R,ugm-3 (GRAV EQ),3,R,ugm-3
05-01-2007,07:00,12,R,ugm-3 (GRAV EQ),3,R,ugm-3
05-01-2007,08:00,12,R,ugm-3 (GRAV EQ),5,R,ugm-3
05-01-2007,09:00,14,R,ugm-3 (GRAV EQ),5,R,ugm-3
05-01-2007,10:00,12,R,ugm-3 (GRAV EQ),5,R,ugm-3
05-01-2007,11:00,14,R,ugm-3 (GRAV EQ),5,R,ugm-3
05-01-2007,12:00,20,R,ugm-3 (GRAV EQ),5,R,ugm-3
05-01-2007,13:00,17,R,ugm-3 (GRAV EQ),5,R,ugm-3
05-01-2007,14:00,30,R,ugm-3 (GRAV EQ),5,R,ugm-3
05-01-2007,15:00,13,R,ugm-3 (GRAV EQ),3,R,ugm-3
05-01-2007,16:00,21,R,ugm-3 (GRAV EQ),5,R,ugm-3
05-01-2007,17:00,25,R,ugm-3 (GRAV EQ),19,R,ugm-3
05-01-2007,18:00,36,R,ugm-3 (GRAV EQ),8,R,ugm-3
05-01-2007,19:00,30,R,ugm-3 (GRAV EQ),5,R,ugm-3
05-01-2007,20:00,33,R,ugm-3 (GRAV EQ),5,R,ugm-3
05-01-2007,21:00,34,R,ugm-3 (GRAV EQ),5,R,ugm-3
05-01-2007,22:00,34,R,ugm-3 (GRAV EQ),5,R,ugm-3
05-01-2007,23:00,35,R,ugm-3 (GRAV EQ),5,R,ugm-3
05-01-2007,24:00,26,R,ugm-3 (GRAV EQ),5,R,ugm-3
06-01-2007,01:00,25,R,ugm-3 (GRAV EQ),5,R,ugm-3
06-01-2007,02:00,22,R,ugm-3 (GRAV EQ),5,R,ugm-3
06-01-2007,03:00,25,R,ugm-3 (GRAV EQ),3,R,ugm-3
06-01-2007,04:00,26,R,ugm-3 (GRAV EQ),3,R,ugm-3
06-01-2007,05:00,22,R,ugm-3 (GRAV EQ),3,R,ugm-3
06-01-2007,06:00,21,R,ugm-3 (GRAV EQ),5,R,ugm-3
06-01-2007,07:00,25,R,ugm-3 (GRAV EQ),5,R,ugm-3
06-01-2007,08:00,25,R,ugm-3 (GRAV EQ),5,R,ugm-3
06-01-2007,09:00,25,R,ugm-3 (GRAV EQ),5,R,ugm-3
06-01-2007,10:00,26,R,ugm-3 (GRAV EQ),5,R,ugm-3
06-01-2007,11:00,23,R,ugm-3 (GRAV EQ),5,R,ugm-3
06-01-2007,12:00,26,R,ugm-3 (GRAV EQ),5,R,ugm-3
06-01-2007,13:00,27,R,ugm-3 (GRAV EQ),5,R,ugm-3
06-01-2007,14:00,31,R,ugm-3 (GRAV EQ),5,R,ugm-3
06-01-2007,15:00,27,R,ugm-3 (GRAV EQ),5,R,ugm-3
06-01-2007,16:00,26,R,ugm-3 (GRAV EQ),5,R,ugm-3
06-01-2007,17:00,27,R,ugm-3 (GRAV EQ),5,R,ugm-3
06-01-2007,18:00,23,R,ugm-3 (GRAV EQ),5,R,ugm-3
06-01-2007,19:00,26,R,ugm-3 (GRAV EQ),8,R,ugm-3
06-01-2007,20:00,27,R,ugm-3 (GRAV EQ),8,R,ugm-3
06-01-2007,21:00,21,R,ugm-3 (GRAV EQ),5,R,ugm-3
06-01-2007,22:00,17,R,ugm-3 (GRAV EQ),5,R,ugm-3
06-01-2007,23:00,18,R,ugm-3 (GRAV EQ),5,R,ugm-3
06-01-2007,24:00,18,R,ugm-3 (GRAV EQ),5,R,ugm-3
07-01-2007,01:00,12,R,ugm-3 (GRAV EQ),3,R,ugm-3
07-01-2007,02:00,12,R,ugm-3 (GRAV EQ),5,R,ugm-3
07-01-2007,03:00,10,R,ugm-3 (GRAV EQ),5,R,ugm-3
07-01-2007,04:00,12,R,ugm-3 (GRAV EQ),5,R,ugm-3
07-01-2007,05:00,14,R,ugm-3 (GRAV EQ),3,R,ugm-3
07-01-2007,06:00,12,R,ugm-3 (GRAV EQ),5,R,ugm-3
07-01-2007,07:00,9,R,ugm-3 (GRAV EQ),3,R,ugm-3
07-01-2007,08:00,10,R,ugm-3 (GRAV EQ),3,R,ugm-3
07-01-2007,09:00,13,R,ugm-3 (GRAV EQ),3,R,ugm-3
07-01-2007,10:00,9,R,ugm-3 (GRAV EQ),3,R,ugm-3
07-01-2007,11:00,7,R,ugm-3 (GRAV EQ),5,R,ugm-3
07-01-2007,12:00,8,R,ugm-3 (GRAV EQ),3,R,ugm-3
07-01-2007,13:00,12,R,ugm-3 (GRAV EQ),5,R,ugm-3
07-01-2007,14:00,8,R,ugm-3 (GRAV EQ),5,R,ugm-3
07-01-2007,15:00,4,R,ugm-3 (GRAV EQ),5,R,ugm-3
07-01-2007,16:00,7,R,ugm-3 (GRAV EQ),5,R,ugm-3
07-01-2007,17:00,5,R,ugm-3 (GRAV EQ),5,R,ugm-3
07-01-2007,18:00,10,R,ugm-3 (GRAV EQ),5,R,ugm-3
07-01-2007,19:00,9,R,ugm-3 (GRAV EQ),5,R,ugm-3
07-01-2007,20:00,9,R,ugm-3 (GRAV EQ),3,R,ugm-3
07-01-2007,21:00,10,R,ugm-3 (GRAV EQ),3,R,ugm-3
07-01-2007,22:00,7,R,ugm-3 (GRAV EQ),3,R,ugm-3
07-01-2007,23:00,4,R,ugm-3 (GRAV EQ),3,R,ugm-3
07-01-2007,24:00,3,R,ugm-3 (GRAV EQ),3,R,ugm-3
08-01-2007,01:00,5,R,ugm-3 (GRAV EQ),3,R,ugm-3
08-01-2007,02:00,3,R,ugm-3 (GRAV EQ),3,R,ugm-3
08-01-2007,03:00,10,R,ugm-3 (GRAV EQ),5,R,ugm-3
08-01-2007,04:00,12,R,ugm-3 (GRAV EQ),3,R,ugm-3
08-01-2007,05:00,10,R,ugm-3 (GRAV EQ),3,R,ugm-3
08-01-2007,06:00,14,R,ugm-3 (GRAV EQ),3,R,ugm-3
08-01-2007,07:00,13,R,ugm-3 (GRAV EQ),3,R,ugm-3
08-01-2007,08:00,20,R,ugm-3 (GRAV EQ),5,R,ugm-3
08-01-2007,09:00,20,R,ugm-3 (GRAV EQ),5,R,ugm-3
08-01-2007,10:00,20,R,ugm-3 (GRAV EQ),5,R,ugm-3
08-01-2007,11:00,22,R,ugm-3 (GRAV EQ),5,R,ugm-3
08-01-2007,12:00,18,R,ugm-3 (GRAV EQ),13,R,ugm-3
08-01-2007,13:00,13,R,ugm-3 (GRAV EQ),8,R,ugm-3
08-01-2007,14:00,9,R,ugm-3 (GRAV EQ),5,R,ugm-3
08-01-2007,15:00,9,R,ugm-3 (GRAV EQ),3,R,ugm-3
08-01-2007,16:00,12,R,ugm-3 (GRAV EQ),3,R,ugm-3
08-01-2007,17:00,17,R,ugm-3 (GRAV EQ),5,R,ugm-3
08-01-2007,18:00,16,R,ugm-3 (GRAV EQ),5,R,ugm-3
08-01-2007,19:00,14,R,ugm-3 (GRAV EQ),5,R,ugm-3
08-01-2007,20:00,16,R,ugm-3 (GRAV EQ),5,R,ugm-3
08-01-2007,21:00,17,R,ugm-3 (GRAV EQ),5,R,ugm-3
08-01-2007,22:00,13,R,ugm-3 (GRAV EQ),3,R,ugm-3
08-01-2007,23:00,9,R,ugm-3 (GRAV EQ),5,R,ugm-3
08-01-2007,24:00,7,R,ugm-3 (GRAV EQ),5,R,ugm-3
09-01-2007,01:00,4,R,ugm-3 (GRAV EQ),5,R,ugm-3
09-01-2007,02:00,9,R,ugm-3 (GRAV EQ),5,R,ugm-3
09-01-2007,03:00,12,R,ugm-3 (GRAV EQ),3,R,ugm-3
09-01-2007,04:00,8,R,ugm-3 (GRAV EQ),3,R,ugm-3
09-01-2007,05:00,7,R,ugm-3 (GRAV EQ),3,R,ugm-3
09-01-2007,06:00,13,R,ugm-3 (GRAV EQ),3,R,ugm-3
09-01-2007,07:00,10,R,ugm-3 (GRAV EQ),3,R,ugm-3
09-01-2007,08:00,12,R,ugm-3 (GRAV EQ),3,R,ugm-3
09-01-2007,09:00,16,R,ugm-3 (GRAV EQ),3,R,ugm-3
09-01-2007,10:00,14,R,ugm-3 (GRAV EQ),5,R,ugm-3
09-01-2007,11:00,10,R,ugm-3 (GRAV EQ),5,R,ugm-3
09-01-2007,12:00,13,R,ugm-3 (GRAV EQ),3,R,ugm-3
09-01-2007,13:00,14,R,ugm-3 (GRAV EQ),3,R,ugm-3
09-01-2007,14:00,13,R,ugm-3 (GRAV EQ),3,R,ugm-3
09-01-2007,15:00,12,R,ugm-3 (GRAV EQ),3,R,ugm-3
09-01-2007,16:00,18,R,ugm-3 (GRAV EQ),3,R,ugm-3
09-01-2007,17:00,25,R,ugm-3 (GRAV EQ),3,R,ugm-3
09-01-2007,18:00,22,R,ugm-3 (GRAV EQ),5,R,ugm-3
09-01-2007,19:00,23,R,ugm-3 (GRAV EQ),3,R,ugm-3
09-01-2007,20:00,18,R,ugm-3 (GRAV EQ),3,R,ugm-3
09-01-2007,21:00,16,R,ugm-3 (GRAV EQ),0,R,ugm-3
09-01-2007,22:00,18,R,ugm-3 (GRAV EQ),5,R,ugm-3
09-01-2007,23:00,16,R,ugm-3 (GRAV EQ),8,R,ugm-3
09-01-2007,24:00,8,R,ugm-3 (GRAV EQ),5,R,ugm-3
10-01-2007,01:00,9,R,ugm-3 (GRAV EQ),5,R,ugm-3
10-01-2007,02:00,7,R,ugm-3 (GRAV EQ),5,R,ugm-3
10-01-2007,03:00,5,R,ugm-3 (GRAV EQ),5,R,ugm-3
10-01-2007,04:00,7,R,ugm-3 (GRAV EQ),5,R,ugm-3
10-01-2007,05:00,13,R,ugm-3 (GRAV EQ),3,R,ugm-3
10-01-2007,06:00,10,R,ugm-3 (GRAV EQ),5,R,ugm-3
10-01-2007,07:00,10,R,ugm-3 (GRAV EQ),3,R,ugm-3
10-01-2007,08:00,7,R,ugm-3 (GRAV EQ),3,R,ugm-3
10-01-2007,09:00,10,R,ugm-3 (GRAV EQ),5,R,ugm-3
10-01-2007,10:00,9,R,ugm-3 (GRAV EQ),8,R,ugm-3
10-01-2007,11:00,14,R,ugm-3 (GRAV EQ),5,R,ugm-3
10-01-2007,12:00,21,R,ugm-3 (GRAV EQ),5,R,ugm-3
10-01-2007,13:00,23,R,ugm-3 (GRAV EQ),5,R,ugm-3
10-01-2007,14:00,18,R,ugm-3 (GRAV EQ),3,R,ugm-3
10-01-2007,15:00,18,R,ugm-3 (GRAV EQ),16,R,ugm-3
10-01-2007,16:00,26,R,ugm-3 (GRAV EQ),24,R,ugm-3
10-01-2007,17:00,25,R,ugm-3 (GRAV EQ),11,R,ugm-3
10-01-2007,18:00,26,R,ugm-3 (GRAV EQ),3,R,ugm-3
10-01-2007,19:00,29,R,ugm-3 (GRAV EQ),5,R,ugm-3
10-01-2007,20:00,31,R,ugm-3 (GRAV EQ),8,R,ugm-3
10-01-2007,21:00,27,R,ugm-3 (GRAV EQ),5,R,ugm-3
10-01-2007,22:00,22,R,ugm-3 (GRAV EQ),5,R,ugm-3
10-01-2007,23:00,17,R,ugm-3 (GRAV EQ),5,R,ugm-3
10-01-2007,24:00,21,R,ugm-3 (GRAV EQ),11,R,ugm-3
11-01-2007,01:00,17,R,ugm-3 (GRAV EQ),8,R,ugm-3
11-01-2007,02:00,10,R,ugm-3 (GRAV EQ),5,R,ugm-3
11-01-2007,03:00,10,R,ugm-3 (GRAV EQ),3,R,ugm-3
11-01-2007,04:00,9,R,ugm-3 (GRAV EQ),0,R,ugm-3
11-01-2007,05:00,4,R,ugm-3 (GRAV EQ),3,R,ugm-3
11-01-2007,06:00,5,R,ugm-3 (GRAV EQ),3,R,ugm-3
11-01-2007,07:00,4,R,ugm-3 (GRAV EQ),3,R,ugm-3
11-01-2007,08:00,5,R,ugm-3 (GRAV EQ),3,R,ugm-3
11-01-2007,09:00,8,R,ugm-3 (GRAV EQ),3,R,ugm-3
11-01-2007,10:00,12,R,ugm-3 (GRAV EQ),3,R,ugm-3
11-01-2007,11:00,27,R,ugm-3 (GRAV EQ),3,R,ugm-3
11-01-2007,12:00,36,R,ugm-3 (GRAV EQ),3,R,ugm-3
11-01-2007,13:00,33,R,ugm-3 (GRAV EQ),3,R,ugm-3
11-01-2007,14:00,43,R,ugm-3 (GRAV EQ),3,R,ugm-3
11-01-2007,15:00,44,R,ugm-3 (GRAV EQ),3,R,ugm-3
11-01-2007,16:00,46,R,ugm-3 (GRAV EQ),3,R,ugm-3
11-01-2007,17:00,42,R,ugm-3 (GRAV EQ),3,R,ugm-3
11-01-2007,18:00,48,R,ugm-3 (GRAV EQ),3,R,ugm-3
11-01-2007,19:00,34,R,ugm-3 (GRAV EQ),3,R,ugm-3
11-01-2007,20:00,47,R,ugm-3 (GRAV EQ),3,R,ugm-3
11-01-2007,21:00,56,R,ugm-3 (GRAV EQ),3,R,ugm-3
11-01-2007,22:00,49,R,ugm-3 (GRAV EQ),3,R,ugm-3
11-01-2007,23:00,36,R,ugm-3 (GRAV EQ),3,R,ugm-3
11-01-2007,24:00,38,R,ugm-3 (GRAV EQ),3,R,ugm-3
12-01-2007,01:00,35,R,ugm-3 (GRAV EQ),3,R,ugm-3
12-01-2007,02:00,42,R,ugm-3 (GRAV EQ),3,R,ugm-3
12-01-2007,03:00,42,R,ugm-3 (GRAV EQ),3,R,ugm-3
12-01-2007,04:00,35,R,ugm-3 (GRAV EQ),3,R,ugm-3
12-01-2007,05:00,31,R,ugm-3 (GRAV EQ),3,R,ugm-3
12-01-2007,06:00,31,R,ugm-3 (GRAV EQ),3,R,ugm-3
12-01-2007,07:00,33,R,ugm-3 (GRAV EQ),3,R,ugm-3
12-01-2007,08:00,29,R,ugm-3 (GRAV EQ),3,R,ugm-3
12-01-2007,09:00,27,R,ugm-3 (GRAV EQ),3,R,ugm-3
12-01-2007,10:00,39,R,ugm-3 (GRAV EQ),5,R,ugm-3
12-01-2007,11:00,35,R,ugm-3 (GRAV EQ),5,R,ugm-3
12-01-2007,12:00,21,R,ugm-3 (GRAV EQ),5,R,ugm-3
12-01-2007,13:00,23,R,ugm-3 (GRAV EQ),5,R,ugm-3
12-01-2007,14:00,18,R,ugm-3 (GRAV EQ),5,R,ugm-3
12-01-2007,15:00,20,R,ugm-3 (GRAV EQ),5,R,ugm-3
12-01-2007,16:00,18,R,ugm-3 (GRAV EQ),5,R,ugm-3
12-01-2007,17:00,18,R,ugm-3 (GRAV EQ),5,R,ugm-3
12-01-2007,18:00,16,R,ugm-3 (GRAV EQ),3,R,ugm-3
12-01-2007,19:00,17,R,ugm-3 (GRAV EQ),5,R,ugm-3
12-01-2007,20:00,13,R,ugm-3 (GRAV EQ),5,R,ugm-3
12-01-2007,21:00,14,R,ugm-3 (GRAV EQ),5,R,ugm-3
12-01-2007,22:00,16,R,ugm-3 (GRAV EQ),3,R,ugm-3
12-01-2007,23:00,23,R,ugm-3 (GRAV EQ),3,R,ugm-3
12-01-2007,24:00,25,R,ugm-3 (GRAV EQ),3,R,ugm-3
13-01-2007,01:00,23,R,ugm-3 (GRAV EQ),3,R,ugm-3
13-01-2007,02:00,34,R,ugm-3 (GRAV EQ),3,R,ugm-3
13-01-2007,03:00,39,R,ugm-3 (GRAV EQ),3,R,ugm-3
13-01-2007,04:00,43,R,ugm-3 (GRAV EQ),3,R,ugm-3
13-01-2007,05:00,47,R,ugm-3 (GRAV EQ),3,R,ugm-3
13-01-2007,06:00,47,R,ugm-3 (GRAV EQ),5,R,ugm-3
13-01-2007,07:00,29,R,ugm-3 (GRAV EQ),3,R,ugm-3
13-01-2007,08:00,21,R,ugm-3 (GRAV EQ),3,R,ugm-3
13-01-2007,09:00,12,R,ugm-3 (GRAV EQ),3,R,ugm-3
13-01-2007,10:00,5,R,ugm-3 (GRAV EQ),8,R,ugm-3
13-01-2007,11:00,0,R,ugm-3 (GRAV EQ),3,R,ugm-3
13-01-2007,12:00,1,R,ugm-3 (GRAV EQ),5,R,ugm-3
13-01-2007,13:00,8,R,ugm-3 (GRAV EQ),3,R,ugm-3
13-01-2007,14:00,5,R,ugm-3 (GRAV EQ),5,R,ugm-3
13-01-2007,15:00,5,R,ugm-3 (GRAV EQ),5,R,ugm-3
13-01-2007,16:00,7,R,ugm-3 (GRAV EQ),5,R,ugm-3
13-01-2007,17:00,5,R,ugm-3 (GRAV EQ),5,R,ugm-3
13-01-2007,18:00,9,R,ugm-3 (GRAV EQ),5,R,ugm-3
13-01-2007,19:00,10,R,ugm-3 (GRAV EQ),5,R,ugm-3
13-01-2007,20:00,16,R,ugm-3 (GRAV EQ),5,R,ugm-3
13-01-2007,21:00,12,R,ugm-3 (GRAV EQ),3,R,ugm-3
13-01-2007,22:00,13,R,ugm-3 (GRAV EQ),3,R,ugm-3
13-01-2007,23:00,18,R,ugm-3 (GRAV EQ),3,R,ugm-3
13-01-2007,24:00,25,R,ugm-3 (GRAV EQ),3,R,ugm-3
14-01-2007,01:00,21,R,ugm-3 (GRAV EQ),3,R,ugm-3
14-01-2007,02:00,21,R,ugm-3 (GRAV EQ),3,R,ugm-3
14-01-2007,03:00,18,R,ugm-3 (GRAV EQ),3,R,ugm-3
14-01-2007,04:00,17,R,ugm-3 (GRAV EQ),3,R,ugm-3
14-01-2007,05:00,20,R,ugm-3 (GRAV EQ),0,R,ugm-3
14-01-2007,06:00,22,R,ugm-3 (GRAV EQ),3,R,ugm-3
14-01-2007,07:00,22,R,ugm-3 (GRAV EQ),3,R,ugm-3
14-01-2007,08:00,22,R,ugm-3 (GRAV EQ),3,R,ugm-3
14-01-2007,09:00,20,R,ugm-3 (GRAV EQ),5,R,ugm-3
14-01-2007,10:00,18,R,ugm-3 (GRAV EQ),3,R,ugm-3
14-01-2007,11:00,14,R,ugm-3 (GRAV EQ),3,R,ugm-3
14-01-2007,12:00,13,R,ugm-3 (GRAV EQ),5,R,ugm-3
14-01-2007,13:00,21,R,ugm-3 (GRAV EQ),5,R,ugm-3
14-01-2007,14:00,43,R,ugm-3 (GRAV EQ),5,R,ugm-3
14-01-2007,15:00,29,R,ugm-3 (GRAV EQ),3,R,ugm-3
14-01-2007,16:00,39,R,ugm-3 (GRAV EQ),5,R,ugm-3
14-01-2007,17:00,34,R,ugm-3 (GRAV EQ),5,R,ugm-3
14-01-2007,18:00,55,R,ugm-3 (GRAV EQ),5,R,ugm-3
14-01-2007,19:00,38,R,ugm-3 (GRAV EQ),5,R,ugm-3
14-01-2007,20:00,30,R,ugm-3 (GRAV EQ),5,R,ugm-3
14-01-2007,21:00,33,R,ugm-3 (GRAV EQ),5,R,ugm-3
14-01-2007,22:00,27,R,ugm-3 (GRAV EQ),5,R,ugm-3
14-01-2007,23:00,25,R,ugm-3 (GRAV EQ),5,R,ugm-3
14-01-2007,24:00,22,R,ugm-3 (GRAV EQ),5,R,ugm-3
15-01-2007,01:00,18,R,ugm-3 (GRAV EQ),5,R,ugm-3
15-01-2007,02:00,14,R,ugm-3 (GRAV EQ),5,R,ugm-3
15-01-2007,03:00,16,R,ugm-3 (GRAV EQ),5,R,ugm-3
15-01-2007,04:00,16,R,ugm-3 (GRAV EQ),5,R,ugm-3
15-01-2007,05:00,12,R,ugm-3 (GRAV EQ),5,R,ugm-3
15-01-2007,06:00,16,R,ugm-3 (GRAV EQ),5,R,ugm-3
15-01-2007,07:00,13,R,ugm-3 (GRAV EQ),5,R,ugm-3
15-01-2007,08:00,14,R,ugm-3 (GRAV EQ),5,R,ugm-3
15-01-2007,09:00,16,R,ugm-3 (GRAV EQ),5,R,ugm-3
15-01-2007,10:00,13,R,ugm-3 (GRAV EQ),5,R,ugm-3
15-01-2007,11:00,13,R,ugm-3 (GRAV EQ),5,R,ugm-3
15-01-2007,12:00,,,,,,
15-01-2007,13:00,,,,,,
15-01-2007,14:00,60,R,ugm-3 (GRAV EQ),5,R,ugm-3
15-01-2007,15:00,46,R,ugm-3 (GRAV EQ),5,R,ugm-3
15-01-2007,16:00,35,R,ugm-3 (GRAV EQ),5,R,ugm-3
15-01-2007,17:00,33,R,ugm-3 (GRAV EQ),5,R,ugm-3
15-01-2007,18:00,27,R,ugm-3 (GRAV EQ),8,R,ugm-3
15-01-2007,19:00,30,R,ugm-3 (GRAV EQ),8,R,ugm-3
15-01-2007,20:00,29,R,ugm-3 (GRAV EQ),8,R,ugm-3
15-01-2007,21:00,27,R,ugm-3 (GRAV EQ),8,R,ugm-3
15-01-2007,22:00,25,R,ugm-3 (GRAV EQ),5,R,ugm-3
15-01-2007,23:00,20,R,ugm-3 (GRAV EQ),5,R,ugm-3
15-01-2007,24:00,21,R,ugm-3 (GRAV EQ),5,R,ugm-3
16-01-2007,01:00,17,R,ugm-3 (GRAV EQ),5,R,ugm-3
16-01-2007,02:00,17,R,ugm-3 (GRAV EQ),5,R,ugm-3
16-01-2007,03:00,13,R,ugm-3 (GRAV EQ),5,R,ugm-3
16-01-2007,04:00,12,R,ugm-3 (GRAV EQ),3,R,ugm-3
16-01-2007,05:00,10,R,ugm-3 (GRAV EQ),3,R,ugm-3
16-01-2007,06:00,8,R,ugm-3 (GRAV EQ),3,R,ugm-3
16-01-2007,07:00,10,R,ugm-3 (GRAV EQ),3,R,ugm-3
16-01-2007,08:00,17,R,ugm-3 (GRAV EQ),5,R,ugm-3
16-01-2007,09:00,22,R,ugm-3 (GRAV EQ),5,R,ugm-3
16-01-2007,10:00,21,R,ugm-3 (GRAV EQ),5,R,ugm-3
16-01-2007,11:00,18,R,ugm-3 (GRAV EQ),5,R,ugm-3
16-01-2007,12:00,30,R,ugm-3 (GRAV EQ),13,R,ugm-3
16-01-2007,13:00,40,R,ugm-3 (GRAV EQ),13,R,ugm-3
16-01-2007,14:00,27,R,ugm-3 (GRAV EQ),11,R,ugm-3
16-01-2007,15:00,36,R,ugm-3 (GRAV EQ),11,R,ugm-3
16-01-2007,16:00,53,R,ugm-3 (GRAV EQ),61,R,ugm-3
16-01-2007,17:00,30,R,ugm-3 (GRAV EQ),21,R,ugm-3
16-01-2007,18:00,27,R,ugm-3 (GRAV EQ),24,R,ugm-3
16-01-2007,19:00,33,R,ugm-3 (GRAV EQ),37,R,ugm-3
16-01-2007,20:00,53,R,ugm-3 (GRAV EQ),82,R,ugm-3
16-01-2007,21:00,29,R,ugm-3 (GRAV EQ),13,R,ugm-3
16-01-2007,22:00,14,R,ugm-3 (GRAV EQ),5,R,ugm-3
16-01-2007,23:00,21,R,ugm-3 (GRAV EQ),5,R,ugm-3
16-01-2007,24:00,17,R,ugm-3 (GRAV EQ),5,R,ugm-3
17-01-2007,01:00,16,R,ugm-3 (GRAV EQ),3,R,ugm-3
17-01-2007,02:00,12,R,ugm-3 (GRAV EQ),3,R,ugm-3
17-01-2007,03:00,9,R,ugm-3 (GRAV EQ),5,R,ugm-3
17-01-2007,04:00,9,R,ugm-3 (GRAV EQ),3,R,ugm-3
17-01-2007,05:00,8,R,ugm-3 (GRAV EQ),5,R,ugm-3
17-01-2007,06:00,9,R,ugm-3 (GRAV EQ),8,R,ugm-3
17-01-2007,07:00,13,R,ugm-3 (GRAV EQ),11,R,ugm-3
17-01-2007,08:00,1,R,ugm-3 (GRAV EQ),3,R,ugm-3
17-01-2007,09:00,8,R,ugm-3 (GRAV EQ),3,R,ugm-3
17-01-2007,10:00,5,R,ugm-3 (GRAV EQ),3,R,ugm-3
17-01-2007,11:00,8,R,ugm-3 (GRAV EQ),3,R,ugm-3
17-01-2007,12:00,18,R,ugm-3 (GRAV EQ),3,R,ugm-3
17-01-2007,13:00,23,R,ugm-3 (GRAV EQ),3,R,ugm-3
17-01-2007,14:00,23,R,ugm-3 (GRAV EQ),0,R,ugm-3
17-01-2007,15:00,26,R,ugm-3 (GRAV EQ),0,R,ugm-3
17-01-2007,16:00,35,R,ugm-3 (GRAV EQ),0,R,ugm-3
17-01-2007,17:00,31,R,ugm-3 (GRAV EQ),0,R,ugm-3
17-01-2007,18:00,30,R,ugm-3 (GRAV EQ),0,R,ugm-3
17-01-2007,19:00,25,R,ugm-3 (GRAV EQ),3,R,ugm-3
17-01-2007,20:00,22,R,ugm-3 (GRAV EQ),3,R,ugm-3
17-01-2007,21:00,21,R,ugm-3 (GRAV EQ),3,R,ugm-3
17-01-2007,22:00,20,R,ugm-3 (GRAV EQ),3,R,ugm-3
17-01-2007,23:00,14,R,ugm-3 (GRAV EQ),3,R,ugm-3
17-01-2007,24:00,10,R,ugm-3 (GRAV EQ),3,R,ugm-3
18-01-2007,01:00,10,R,ugm-3 (GRAV EQ),5,R,ugm-3
18-01-2007,02:00,9,R,ugm-3 (GRAV EQ),5,R,ugm-3
18-01-2007,03:00,14,R,ugm-3 (GRAV EQ),3,R,ugm-3
18-01-2007,04:00,9,R,ugm-3 (GRAV EQ),5,R,ugm-3
18-01-2007,05:00,-4,R,ugm-3 (GRAV EQ),3,R,ugm-3
18-01-2007,06:00,-1,R,ugm-3 (GRAV EQ),3,R,ugm-3
18-01-2007,07:00,1,R,ugm-3 (GRAV EQ),5,R,ugm-3
18-01-2007,08:00,3,R,ugm-3 (GRAV EQ),5,R,ugm-3
18-01-2007,09:00,8,R,ugm-3 (GRAV EQ),5,R,ugm-3
18-01-2007,10:00,1,R,ugm-3 (GRAV EQ),5,R,ugm-3
18-01-2007,11:00,12,R,ugm-3 (GRAV EQ),5,R,ugm-3
18-01-2007,12:00,16,R,ugm-3 (GRAV EQ),3,R,ugm-3
18-01-2007,13:00,39,R,ugm-3 (GRAV EQ),5,R,ugm-3
18-01-2007,14:00,47,R,ugm-3 (GRAV EQ),5,R,ugm-3
18-01-2007,15:00,39,R,ugm-3 (GRAV EQ),5,R,ugm-3
18-01-2007,16:00,42,R,ugm-3 (GRAV EQ),5,R,ugm-3
18-01-2007,17:00,36,R,ugm-3 (GRAV EQ),3,R,ugm-3
18-01-2007,18:00,23,R,ugm-3 (GRAV EQ),5,R,ugm-3
18-01-2007,19:00,20,R,ugm-3 (GRAV EQ),5,R,ugm-3
18-01-2007,20:00,21,R,ugm-3 (GRAV EQ),5,R,ugm-3
18-01-2007,21:00,16,R,ugm-3 (GRAV EQ),5,R,ugm-3
18-01-2007,22:00,27,R,ugm-3 (GRAV EQ),5,R,ugm-3
18-01-2007,23:00,42,R,ugm-3 (GRAV EQ),5,R,ugm-3
18-01-2007,24:00,34,R,ugm-3 (GRAV EQ),5,R,ugm-3
19-01-2007,01:00,22,R,ugm-3 (GRAV EQ),3,R,ugm-3
19-01-2007,02:00,16,R,ugm-3 (GRAV EQ),3,R,ugm-3
19-01-2007,03:00,14,R,ugm-3 (GRAV EQ),3,R,ugm-3
19-01-2007,04:00,22,R,ugm-3 (GRAV EQ),3,R,ugm-3
19-01-2007,05:00,29,R,ugm-3 (GRAV EQ),3,R,ugm-3
19-01-2007,06:00,35,R,ugm-3 (GRAV EQ),3,R,ugm-3
19-01-2007,07:00,39,R,ugm-3 (GRAV EQ),3,R,ugm-3
19-01-2007,08:00,46,R,ugm-3 (GRAV EQ),3,R,ugm-3
19-01-2007,09:00,48,R,ugm-3 (GRAV EQ),3,R,ugm-3
19-01-2007,10:00,47,R,ugm-3 (GRAV EQ),3,R,ugm-3
19-01-2007,11:00,48,R,ugm-3 (GRAV EQ),3,R,ugm-3
19-01-2007,12:00,39,R,ugm-3 (GRAV EQ),3,R,ugm-3
19-01-2007,13:00,35,R,ugm-3 (GRAV EQ),3,R,ugm-3
19-01-2007,14:00,25,R,ugm-3 (GRAV EQ),3,R,ugm-3
19-01-2007,15:00,30,R,ugm-3 (GRAV EQ),5,R,ugm-3
19-01-2007,16:00,36,R,ugm-3 (GRAV EQ),3,R,ugm-3
19-01-2007,17:00,36,R,ugm-3 (GRAV EQ),3,R,ugm-3
19-01-2007,18:00,30,R,ugm-3 (GRAV EQ),5,R,ugm-3
19-01-2007,19:00,26,R,ugm-3 (GRAV EQ),3,R,ugm-3
19-01-2007,20:00,23,R,ugm-3 (GRAV EQ),3,R,ugm-3
19-01-2007,21:00,12,R,ugm-3 (GRAV EQ),3,R,ugm-3
19-01-2007,22:00,4,R,ugm-3 (GRAV EQ),3,R,ugm-3
19-01-2007,23:00,5,R,ugm-3 (GRAV EQ),3,R,ugm-3
19-01-2007,24:00,3,R,ugm-3 (GRAV EQ),3,R,ugm-3
20-01-2007,01:00,1,R,ugm-3 (GRAV EQ),3,R,ugm-3
20-01-2007,02:00,1,R,ugm-3 (GRAV EQ),3,R,ugm-3
20-01-2007,03:00,1,R,ugm-3 (GRAV EQ),3,R,ugm-3
20-01-2007,04:00,3,R,ugm-3 (GRAV EQ),0,R,ugm-3
20-01-2007,05:00,3,R,ugm-3 (GRAV EQ),0,R,ugm-3
20-01-2007,06:00,0,R,ugm-3 (GRAV EQ),0,R,ugm-3
20-01-2007,07:00,3,R,ugm-3 (GRAV EQ),0,R,ugm-3
20-01-2007,08:00,10,R,ugm-3 (GRAV EQ),0,R,ugm-3
20-01-2007,09:00,16,R,ugm-3 (GRAV EQ),0,R,ugm-3
20-01-2007,10:00,21,R,ugm-3 (GRAV EQ),0,R,ugm-3
20-01-2007,11:00,25,R,ugm-3 (GRAV EQ),0,R,ugm-3
20-01-2007,12:00,16,R,ugm-3 (GRAV EQ),3,R,ugm-3
20-01-2007,13:00,17,R,ugm-3 (GRAV EQ),0,R,ugm-3
20-01-2007,14:00,18,R,ugm-3 (GRAV EQ),3,R,ugm-3
20-01-2007,15:00,13,R,ugm-3 (GRAV EQ),3,R,ugm-3
20-01-2007,16:00,21,R,ugm-3 (GRAV EQ),0,R,ugm-3
20-01-2007,17:00,17,R,ugm-3 (GRAV EQ),0,R,ugm-3
20-01-2007,18:00,21,R,ugm-3 (GRAV EQ),3,R,ugm-3
20-01-2007,19:00,21,R,ugm-3 (GRAV EQ),3,R,ugm-3
20-01-2007,20:00,20,R,ugm-3 (GRAV EQ),3,R,ugm-3
20-01-2007,21:00,21,R,ugm-3 (GRAV EQ),3,R,ugm-3
20-01-2007,22:00,20,R,ugm-3 (GRAV EQ),3,R,ugm-3
20-01-2007,23:00,20,R,ugm-3 (GRAV EQ),3,R,ugm-3
20-01-2007,24:00,18,R,ugm-3 (GRAV EQ),3,R,ugm-3
21-01-2007,01:00,8,R,ugm-3 (GRAV EQ),0,R,ugm-3
21-01-2007,02:00,7,R,ugm-3 (GRAV EQ),3,R,ugm-3
21-01-2007,03:00,14,R,ugm-3 (GRAV EQ),0,R,ugm-3
21-01-2007,04:00,8,R,ugm-3 (GRAV EQ),3,R,ugm-3
21-01-2007,05:00,9,R,ugm-3 (GRAV EQ),3,R,ugm-3
21-01-2007,06:00,9,R,ugm-3 (GRAV EQ),0,R,ugm-3
21-01-2007,07:00,13,R,ugm-3 (GRAV EQ),0,R,ugm-3
21-01-2007,08:00,8,R,ugm-3 (GRAV EQ),0,R,ugm-3
21-01-2007,09:00,8,R,ugm-3 (GRAV EQ),0,R,ugm-3
21-01-2007,10:00,14,R,ugm-3 (GRAV EQ),3,R,ugm-3
21-01-2007,11:00,14,R,ugm-3 (GRAV EQ),3,R,ugm-3
21-01-2007,12:00,5,R,ugm-3 (GRAV EQ),0,R,ugm-3
21-01-2007,13:00,8,R,ugm-3 (GRAV EQ),0,R,ugm-3
21-01-2007,14:00,14,R,ugm-3 (GRAV EQ),3,R,ugm-3
21-01-2007,15:00,9,R,ugm-3 (GRAV EQ),3,R,ugm-3
21-01-2007,16:00,10,R,ugm-3 (GRAV EQ),0,R,ugm-3
21-01-2007,17:00,12,R,ugm-3 (GRAV EQ),0,R,ugm-3